Tracking 35274 objects as of 10-Sep-2026
HD Live streaming from Space Station
objects crossing your sky now

CONNECTA IOT-7

Track CONNECTA IOT-7 now!
10-day predictions
CONNECTA IOT-7 is classified as:


NORAD ID: 62715
Int'l Code: 2025-009DL
Launch date: January 14, 2025
Source: Turkey (TURK)
Launch site: AIR FORCE WESTERN TEST RANGE (AFWTR)

Uplink (MHz):
Downlink (MHz): 401.530/869.525
Beacon (MHz):
Mode: 4k8 GMSK LoRa
Call sign: CNT007
Status: Active

Your satellite tracking list
Your tracking list is empty




NASA's NSSDC Master Catalog

Two Line Element Set (TLE):
1 62715U 25009DL  26252.74627559  .00001294  00000-0  12550-3 0  9991
2 62715  97.7028 329.9368 0000095 113.7009 246.4222 14.94353873 89973
Source of the keplerian elements: AFSPC